When you browse on this site, cookies collect data to enhance your experience and personalize the content and advertising you see.
Visit our Privacy Policy to learn more. By continuing to use the site, you agree to this use of cookies and data.
  • In Portugal
  • List of Countries
  • For 7 days
  • Water Temperature
  • Satellite Maps
  • Weather Map
  • Weather Widgets
  • user-avatar
    Login

    Hourly Weather Lukyanovo

    Today, 23 July, Tuesday

    Time Temperature Precipitation Wind Pressure Humidity
    00:00 +16°C° 0 mm 1 mps 741 mmHg 88%
    01:00 +16°C° 0 mm 1 mps 741 mmHg 90%
    02:00 +15°C° 0 mm 1 mps 741 mmHg 91%
    03:00 +16°C° 0 mm 1 mps 741 mmHg 91%
    04:00 +16°C° 0 mm 1 mps 740 mmHg 91%
    05:00 +16°C° 0 mm 1 mps 740 mmHg 91%
    06:00 +17°C° 0.1 mm 2 mps 740 mmHg 87%
    07:00 +18°C° 0.1 mm 2 mps 740 mmHg 83%
    08:00 +19°C° 0.1 mm 2 mps 740 mmHg 79%
    09:00 +20°C° 0.2 mm 2 mps 740 mmHg 76%
    10:00 +21°C° 0.2 mm 2 mps 740 mmHg 72%
    11:00 +22°C° 0.2 mm 3 mps 740 mmHg 68%
    12:00 +22°C° 0.3 mm 3 mps 740 mmHg 67%
    13:00 +24°C° 0.3 mm 3 mps 740 mmHg 66%
    14:00 +24°C° 0.3 mm 3 mps 740 mmHg 64%
    15:00 +24°C° 0.4 mm 2 mps 741 mmHg 69%
    16:00 +23°C° 0.4 mm 2 mps 741 mmHg 73%
    17:00 +21°C° 0.4 mm 2 mps 741 mmHg 78%
    18:00 +20°C° 0.2 mm 2 mps 741 mmHg 82%
    19:00 +19°C° 0.2 mm 2 mps 741 mmHg 86%
    20:00 +17°C° 0.2 mm 2 mps 740 mmHg 91%
    21:00 +16°C° 0 mm 2 mps 741 mmHg 92%
    22:00 +16°C° 0 mm 2 mps 741 mmHg 92%
    23:00 +15°C° 0 mm 2 mps 741 mmHg 93%

    Tomorrow, 24 July, Wednesday

    Time Temperature Precipitation Wind Pressure Humidity
    00:00 +14°C° 0 mm 2 mps 741 mmHg 93%
    01:00 +14°C° 0 mm 2 mps 741 mmHg 93%
    02:00 +14°C° 0 mm 2 mps 741 mmHg 93%
    03:00 +14°C° 0 mm 2 mps 741 mmHg 93%
    04:00 +14°C° 0 mm 2 mps 741 mmHg 92%
    05:00 +14°C° 0 mm 2 mps 742 mmHg 91%
    06:00 +16°C° 0 mm 2 mps 742 mmHg 84%
    07:00 +17°C° 0 mm 3 mps 742 mmHg 76%
    08:00 +19°C° 0 mm 3 mps 742 mmHg 69%
    09:00 +20°C° 0 mm 3 mps 742 mmHg 63%
    10:00 +22°C° 0 mm 3 mps 742 mmHg 57%
    11:00 +24°C° 0 mm 3 mps 742 mmHg 51%
    12:00 +23°C° 0 mm 4 mps 742 mmHg 49%
    13:00 +25°C° 0 mm 4 mps 742 mmHg 47%
    14:00 +25°C° 0 mm 5 mps 742 mmHg 44%
    15:00 +25°C° 0 mm 5 mps 742 mmHg 47%
    16:00 +23°C° 0 mm 5 mps 742 mmHg 50%
    17:00 +22°C° 0 mm 5 mps 742 mmHg 52%
    18:00 +20°C° 0 mm 4 mps 742 mmHg 59%
    19:00 +19°C° 0 mm 4 mps 742 mmHg 66%
    20:00 +17°C° 0 mm 3 mps 742 mmHg 73%
    21:00 +16°C° 0 mm 3 mps 742 mmHg 77%
    22:00 +14°C° 0 mm 3 mps 742 mmHg 80%
    23:00 +13°C° 0 mm 3 mps 742 mmHg 83%

    Day after tomorrow, 25 July, Thursday

    Time Temperature Precipitation Wind Pressure Humidity
    00:00 +13°C° 0 mm 3 mps 742 mmHg 84%
    01:00 +12°C° 0 mm 3 mps 742 mmHg 85%
    02:00 +12°C° 0 mm 3 mps 742 mmHg 86%
    03:00 +12°C° 0 mm 3 mps 742 mmHg 85%
    04:00 +12°C° 0 mm 3 mps 742 mmHg 85%
    05:00 +12°C° 0 mm 3 mps 741 mmHg 84%
    06:00 +13°C° 0.1 mm 3 mps 741 mmHg 82%
    07:00 +14°C° 0.1 mm 3 mps 741 mmHg 79%
    08:00 +16°C° 0.1 mm 3 mps 741 mmHg 77%
    09:00 +16°C° 1.1 mm 3 mps 741 mmHg 83%
    10:00 +16°C° 1.1 mm 3 mps 742 mmHg 88%
    11:00 +14°C° 1.1 mm 3 mps 742 mmHg 94%
    12:00 +16°C° 0.1 mm 3 mps 742 mmHg 92%
    13:00 +17°C° 0.1 mm 3 mps 742 mmHg 89%
    14:00 +18°C° 0.1 mm 2 mps 742 mmHg 87%
    15:00 +19°C° 0.2 mm 2 mps 742 mmHg 86%
    16:00 +20°C° 0.2 mm 2 mps 742 mmHg 84%
    17:00 +20°C° 0.2 mm 2 mps 742 mmHg 82%
    18:00 +19°C° 0.7 mm 2 mps 742 mmHg 87%
    19:00 +18°C° 0.7 mm 2 mps 743 mmHg 91%
    20:00 +17°C° 0.7 mm 2 mps 743 mmHg 95%
    21:00 +17°C° 0.2 mm 3 mps 743 mmHg 96%
    22:00 +17°C° 0.2 mm 3 mps 743 mmHg 97%
    23:00 +17°C° 0.2 mm 3 mps 743 mmHg 97%

    26 July, Friday

    Time Temperature Precipitation Wind Pressure Humidity
    00:00 +17°C° 0 mm 3 mps 744 mmHg 98%
    01:00 +16°C° 0 mm 3 mps 744 mmHg 98%
    02:00 +16°C° 0 mm 3 mps 744 mmHg 98%
    03:00 +16°C° 0 mm 3 mps 744 mmHg 97%
    04:00 +17°C° 0 mm 3 mps 744 mmHg 97%
    05:00 +17°C° 0 mm 3 mps 745 mmHg 96%
    06:00 +18°C° 0 mm 3 mps 745 mmHg 94%
    07:00 +18°C° 0 mm 3 mps 745 mmHg 92%
    08:00 +19°C° 0 mm 4 mps 745 mmHg 90%
    09:00 +21°C° 0 mm 4 mps 745 mmHg 79%
    10:00 +23°C° 0 mm 4 mps 745 mmHg 69%
    11:00 +26°C° 0 mm 4 mps 746 mmHg 58%
    12:00 +27°C° 0 mm 4 mps 745 mmHg 57%
    13:00 +27°C° 0 mm 4 mps 745 mmHg 55%
    14:00 +28°C° 0 mm 4 mps 745 mmHg 54%
    15:00 +27°C° 0 mm 4 mps 745 mmHg 57%
    16:00 +27°C° 0 mm 4 mps 745 mmHg 61%
    17:00 +26°C° 0 mm 4 mps 745 mmHg 65%
    18:00 +24°C° 0 mm 3 mps 745 mmHg 72%
    19:00 +22°C° 0 mm 3 mps 745 mmHg 78%
    20:00 +20°C° 0 mm 2 mps 745 mmHg 85%
    21:00 +20°C° 0 mm 2 mps 745 mmHg 88%
    22:00 +19°C° 0 mm 2 mps 745 mmHg 90%
    23:00 +18°C° 0 mm 2 mps 745 mmHg 93%

    27 July, Saturday

    Time Temperature Precipitation Wind Pressure Humidity
    00:00 +18°C° 0 mm 2 mps 745 mmHg 94%
    01:00 +17°C° 0 mm 2 mps 745 mmHg 95%
    02:00 +17°C° 0 mm 2 mps 745 mmHg 96%
    03:00 +17°C° 0 mm 2 mps 745 mmHg 95%
    04:00 +17°C° 0 mm 2 mps 745 mmHg 94%
    05:00 +17°C° 0 mm 2 mps 745 mmHg 93%
    06:00 +19°C° 0 mm 2 mps 745 mmHg 85%
    07:00 +21°C° 0 mm 2 mps 745 mmHg 78%
    08:00 +24°C° 0 mm 2 mps 746 mmHg 70%
    09:00 +25°C° 0 mm 3 mps 745 mmHg 64%
    10:00 +27°C° 0 mm 3 mps 745 mmHg 58%
    11:00 +28°C° 0 mm 3 mps 745 mmHg 52%
    12:00 +28°C° 0 mm 3 mps 745 mmHg 51%
    13:00 +29°C° 0 mm 3 mps 745 mmHg 50%
    14:00 +29°C° 0 mm 3 mps 744 mmHg 50%
    15:00 +28°C° 0.1 mm 3 mps 744 mmHg 55%
    16:00 +27°C° 0.1 mm 3 mps 744 mmHg 60%
    17:00 +27°C° 0.1 mm 3 mps 743 mmHg 66%
    18:00 +25°C° 0.1 mm 2 mps 743 mmHg 73%
    19:00 +24°C° 0.1 mm 2 mps 743 mmHg 79%
    20:00 +21°C° 0.1 mm 2 mps 743 mmHg 86%
    21:00 +20°C° 0 mm 2 mps 743 mmHg 87%
    22:00 +19°C° 0 mm 2 mps 743 mmHg 89%
    23:00 +19°C° 0 mm 2 mps 743 mmHg 90%

    28 July, Sunday

    Time Temperature Precipitation Wind Pressure Humidity
    00:00 +18°C° 0 mm 2 mps 743 mmHg 90%
    01:00 +18°C° 0 mm 2 mps 743 mmHg 90%
    02:00 +17°C° 0 mm 2 mps 742 mmHg 90%
    03:00 +17°C° 0 mm 2 mps 742 mmHg 90%
    04:00 +17°C° 0 mm 2 mps 742 mmHg 91%
    05:00 +17°C° 0 mm 2 mps 742 mmHg 91%
    06:00 +18°C° 0 mm 2 mps 742 mmHg 87%
    07:00 +20°C° 0 mm 3 mps 742 mmHg 83%
    08:00 +21°C° 0 mm 3 mps 743 mmHg 79%
    09:00 +22°C° 0 mm 3 mps 743 mmHg 71%
    10:00 +22°C° 0 mm 3 mps 743 mmHg 63%
    11:00 +23°C° 0 mm 4 mps 743 mmHg 56%
    12:00 +23°C° 0 mm 4 mps 743 mmHg 52%
    13:00 +23°C° 0 mm 4 mps 743 mmHg 49%
    14:00 +23°C° 0 mm 4 mps 743 mmHg 45%
    15:00 +23°C° 0 mm 4 mps 743 mmHg 45%
    16:00 +22°C° 0 mm 4 mps 743 mmHg 45%
    17:00 +22°C° 0 mm 4 mps 743 mmHg 45%
    18:00 +20°C° 0 mm 3 mps 743 mmHg 52%
    19:00 +17°C° 0 mm 3 mps 743 mmHg 58%
    20:00 +15°C° 0 mm 2 mps 743 mmHg 65%
    21:00 +14°C° 0 mm 2 mps 744 mmHg 66%
    22:00 +13°C° 0 mm 2 mps 744 mmHg 67%
    23:00 +12°C° 0 mm 1 mps 744 mmHg 68%
    Show more